Location: ČR
(50.0000°N, 15.0000°E)
Time: 14:54:54
(UTC+00:00)

deb Explorer IX - Visible Passes

Search period start: 25 October 2021 00:00
Search period end: 04 November 2021 00:00
Orbit: 546 x 1089 km, 38.8° (Epoch: 24 October)

Date Brightness Start Highest point End Pass type
(mag) Time Alt. Az. Time Alt. Az. Time Alt. Az.
25 Oct ? 01:31:19 14° ESE 01:31:19 14° ESE 01:32:22 10° ESE visible
25 Oct ? 03:12:31 27° SSW 03:13:52 29° S 03:18:53 10° ESE visible
25 Oct ? 04:55:06 10° WSW 04:59:55 23° SSW 05:04:13 10° SE visible
26 Oct ? 02:49:17 30° S 02:49:17 30° S 02:54:27 10° ESE visible
26 Oct ? 04:30:29 11° WSW 04:35:19 24° SSW 04:39:49 10° SE visible
27 Oct ? 02:26:02 28° SSE 02:26:02 28° SSE 02:29:58 10° ESE visible
27 Oct ? 04:07:14 16° WSW 04:10:43 25° SSW 04:15:24 10° SE visible
28 Oct ? 02:02:48 22° SE 02:02:48 22° SE 02:05:27 10° ESE visible
28 Oct ? 03:43:59 22° SW 03:46:04 26° SSW 03:50:57 10° SE visible
29 Oct ? 01:39:34 16° SE 01:39:34 16° SE 01:40:53 10° ESE visible
29 Oct ? 03:20:46 26° SSW 03:21:24 27° SSW 03:26:29 10° SE visible
29 Oct ? 05:04:24 10° WSW 05:07:05 13° SSW 05:09:36 10° S visible
30 Oct ? 02:57:34 27° S 02:57:34 27° S 03:01:58 10° SE visible
30 Oct ? 04:39:26 10° WSW 04:42:26 14° SSW 04:45:17 10° S visible
31 Oct ? 02:34:24 23° SSE 02:34:24 23° SSE 02:37:25 10° SE visible
31 Oct ? 04:15:36 12° SW 04:17:46 14° SSW 04:20:54 10° S visible
01 Nov ? 02:11:16 16° SSE 02:11:16 16° SSE 02:12:50 10° SE visible
01 Nov ? 03:52:29 15° SW 03:53:05 15° SSW 03:56:28 10° S visible
02 Nov ? 01:48:12 10° SE 01:48:12 10° SE 01:48:14 10° SE visible
02 Nov ? 03:29:24 15° SSW 03:29:24 15° SSW 03:31:59 10° S visible
03 Nov ? 03:06:23 13° S 03:06:23 13° S 03:07:27 10° S visible
